Fort Denison Observation History
Time Wind Speed Temp Pressure Rel. Hum Rain
03/05:00am W 10-14 kts n/a n/a n/a n/a
03/04:30am W 9-12 kts n/a n/a n/a n/a
03/04:00am W 9-13 kts n/a n/a n/a n/a
03/03:30am W 7-9 kts n/a n/a n/a n/a
03/03:00am W 7-10 kts n/a n/a n/a n/a
03/02:30am W 9-12 kts n/a n/a n/a n/a
03/02:00am W 11-13 kts n/a n/a n/a n/a
03/01:30am W 9-11 kts n/a n/a n/a n/a
03/01:00am WNW 8-10 kts n/a n/a n/a n/a
03/12:30am WNW 7-10 kts n/a n/a n/a n/a
03/12:00am W 9-12 kts n/a n/a n/a n/a
Time Wind Speed Temp Pressure Rel. Hum Rain
02/11:30pm W 10-14 kts n/a n/a n/a n/a
02/11:00pm W 13-17 kts n/a n/a n/a n/a
02/10:30pm W 13-18 kts n/a n/a n/a n/a
02/10:00pm W 13-17 kts n/a n/a n/a n/a
02/09:30pm W 13-18 kts n/a n/a n/a n/a
02/09:00pm W 12-16 kts n/a n/a n/a n/a
02/08:30pm W 12-17 kts n/a n/a n/a n/a
02/08:00pm W 14-20 kts n/a n/a n/a n/a
02/07:30pm W 17-23 kts n/a n/a n/a n/a
02/07:00pm W 16-27 kts n/a n/a n/a n/a
02/06:30pm WSW 18-30 kts n/a n/a n/a n/a
02/06:01pm W 17-27 kts n/a n/a n/a n/a
02/06:00pm W 17-25 kts n/a n/a n/a n/a
02/05:37pm W 17-29 kts n/a n/a n/a n/a
02/05:30pm W 18-27 kts n/a n/a n/a n/a
02/05:05pm W 17-29 kts n/a n/a n/a n/a
02/05:00pm W 17-22 kts n/a n/a n/a n/a
02/04:30pm W 16-24 kts n/a n/a n/a n/a
02/04:00pm W 17-25 kts n/a n/a n/a n/a
02/03:30pm W 13-22 kts n/a n/a n/a n/a
02/03:00pm W 10-14 kts n/a n/a n/a n/a
02/02:30pm SW 8-14 kts n/a n/a n/a n/a
02/02:00pm SW 8-16 kts n/a n/a n/a n/a
02/01:30pm WSW 9-16 kts n/a n/a n/a n/a
02/01:00pm WSW 13-25 kts n/a n/a n/a n/a
02/12:35pm W 16-26 kts n/a n/a n/a n/a
02/12:30pm W 17-23 kts n/a n/a n/a n/a
02/12:00pm WSW 13-21 kts n/a n/a n/a n/a
02/11:30am W 13-18 kts n/a n/a n/a n/a
02/11:00am W 15-21 kts n/a n/a n/a n/a
02/10:30am WNW 8-17 kts n/a n/a n/a n/a
02/10:00am NW 7-10 kts n/a n/a n/a n/a
02/09:30am NW 6-9 kts n/a n/a n/a n/a
02/09:00am NW 7-11 kts n/a n/a n/a n/a
02/08:30am W 11-17 kts n/a n/a n/a n/a
02/08:00am W 10-15 kts n/a n/a n/a n/a
02/07:30am W 10-13 kts n/a n/a n/a n/a
02/07:00am W 12-16 kts n/a n/a n/a n/a
02/06:30am W 13-17 kts n/a n/a n/a n/a
02/06:00am W 15-19 kts n/a n/a n/a n/a
02/05:30am W 14-19 kts n/a n/a n/a n/a
02/05:00am W 11-15 kts n/a n/a n/a n/a
02/04:30am W 10-14 kts n/a n/a n/a n/a
02/04:00am W 9-12 kts n/a n/a n/a n/a
02/03:30am W 10-13 kts n/a n/a n/a n/a
02/03:00am WNW 9-12 kts n/a n/a n/a n/a
02/02:30am NW 10-15 kts n/a n/a n/a n/a
02/02:00am NW 9-12 kts n/a n/a n/a n/a
02/01:30am NW 7-12 kts n/a n/a n/a n/a
02/01:00am WNW 8-11 kts n/a n/a n/a n/a
02/12:30am WNW 10-13 kts n/a n/a n/a n/a
02/12:00am WNW 9-14 kts n/a n/a n/a n/a
Time Wind Speed Temp Pressure Rel. Hum Rain
01/11:30pm W 9-13 kts n/a n/a n/a n/a
01/11:00pm W 8-11 kts n/a n/a n/a n/a
01/10:30pm W 10-14 kts n/a n/a n/a n/a
01/10:00pm WSW 11-14 kts n/a n/a n/a n/a
01/09:30pm WSW 11-18 kts n/a n/a n/a n/a
01/09:00pm WSW 11-15 kts n/a n/a n/a n/a
01/08:30pm W 13-18 kts n/a n/a n/a n/a
01/08:00pm W 14-19 kts n/a n/a n/a n/a
01/07:30pm W 17-26 kts n/a n/a n/a n/a
01/07:01pm W 15-25 kts n/a n/a n/a n/a
01/07:00pm W 16-25 kts n/a n/a n/a n/a
01/06:30pm WNW 15-22 kts n/a n/a n/a n/a
01/06:00pm WNW 14-20 kts n/a n/a n/a n/a
01/05:30pm W 20-30 kts n/a n/a n/a n/a
01/05:06pm WNW 15-25 kts n/a n/a n/a n/a
01/05:00pm WNW 17-24 kts n/a n/a n/a n/a
01/04:47pm W 15-23 kts n/a n/a n/a n/a
01/04:30pm NW 7-12 kts n/a n/a n/a n/a
01/04:00pm NW 13-20 kts n/a n/a n/a n/a
01/03:30pm NNW 14-20 kts n/a n/a n/a n/a
01/03:00pm NNW 20-33 kts n/a n/a n/a n/a
01/02:30pm NW 15-27 kts n/a n/a n/a n/a
01/02:05pm NNW 19-29 kts n/a n/a n/a n/a
01/02:00pm NNW 19-27 kts n/a n/a n/a n/a
01/01:38pm NNW 20-30 kts n/a n/a n/a n/a
01/01:30pm NNW 21-29 kts n/a n/a n/a n/a
01/01:00pm NNW 20-31 kts n/a n/a n/a n/a
01/12:30pm NNW 19-30 kts n/a n/a n/a n/a
01/12:06pm NNW 17-27 kts n/a n/a n/a n/a
01/12:00pm NNW 18-27 kts n/a n/a n/a n/a
01/11:58am NNW 17-27 kts n/a n/a n/a n/a
01/11:30am NNW 12-20 kts n/a n/a n/a n/a
01/11:00am N 14-20 kts n/a n/a n/a n/a
01/10:30am N 13-19 kts n/a n/a n/a n/a
01/10:00am N 14-18 kts n/a n/a n/a n/a
01/09:30am N 11-16 kts n/a n/a n/a n/a
01/09:00am N 12-19 kts n/a n/a n/a n/a
01/08:30am N 12-17 kts n/a n/a n/a n/a
01/08:00am N 10-13 kts n/a n/a n/a n/a
01/07:30am N 10-13 kts n/a n/a n/a n/a
01/07:00am N 8-10 kts n/a n/a n/a n/a
01/06:30am N 9-13 kts n/a n/a n/a n/a
01/06:00am NNW 9-12 kts n/a n/a n/a n/a
01/05:30am N 7-9 kts n/a n/a n/a n/a
01/05:00am N 9-12 kts n/a n/a n/a n/a
01/04:30am N 3-6 kts n/a n/a n/a n/a
01/04:00am CALM 0-2 kts n/a n/a n/a n/a
01/03:30am NW 2-3 kts n/a n/a n/a n/a
01/03:00am WNW 4-8 kts n/a n/a n/a n/a
01/02:30am WNW 5-6 kts n/a n/a n/a n/a
01/02:00am NW 3-4 kts n/a n/a n/a n/a
01/01:30am N 3-5 kts n/a n/a n/a n/a
01/01:00am NW 5-8 kts n/a n/a n/a n/a
01/12:30am NW 7-9 kts n/a n/a n/a n/a
01/12:00am NNW 7-9 kts n/a n/a n/a n/a